West Palm Beach, FL

8:30 PM EDT on October 22, 2019 (GMT -0400)
Palm Beach International

Weather History for KPBI - June, 2019

Change the Weather History Date:

Thursday, June 6, 2019

  Actual Average Record
Temperature  
Mean Temperature 86 °F 81 °F  
Max Temperature 91 °F 88 °F 96 °F (1949)
Min Temperature 80 °F 74 °F 66 °F (1941)
Degree Days  
Heating Degree Days 0 0  
Month to date heating degree days 0 0  
Since 1 June heating degree days 0 0  
Since 1 July heating degree days 144 233  
Cooling Degree Days 21 16  
Month to date cooling degree days 120 95  
Year to date cooling degree days 1521 1204  
Since 1 June cooling degree days 120 95  
Growing Degree Days 36 (Base 50)    
Moisture  
Dew Point 73 °F    
Average Humidity 71    
Maximum Humidity 85    
Minimum Humidity 56    
Precipitation  
Precipitation 0.01 in 0.27 in 4.18 in (2017)
Month to date precipitation 1.44 1.60  
Year to date precipitation 22.45 20.31  
Snow  
Snow 0.00 in - - ()
Month to date snowfall 0.0  
Since 1 June snowfall 0.0  
Since 1 July snowfall 0.0  
Snow Depth 0.00 in    
Sea Level Pressure  
Sea Level Pressure 29.95 in    
Wind  
Wind Speed 9 mph (SE)    
Max Wind Speed 18 mph    
Max Gust Speed 24 mph    
Visibility 10 miles    
Events Rain    
T = Trace of Precipitation, MM = Missing Value Source: NWS Daily Summary

Daily Weather History Graph

Daily Weather History Graph

Search for Another Location

Airport or City:

Astronomy

Jun. 06, 2019 Rise Set
Actual Time 6:26 AM EDT 8:11 PM EDT
Civil Twilight 6:00 AM EDT 8:37 PM EDT
Nautical Twilight 5:29 AM EDT 9:09 PM EDT
Astronomical Twilight 4:56 AM EDT 9:42 PM EDT
Moon 9:31 AM EDT (6/6) 11:32 PM EDT (6/6)
Length of Visible Light 14h 37m
Length of Day
13h 45m
Waxing Crescent, 13% of the Moon is Illuminated
Jun 6
Waxing Crescent
Jun 10
First Quarter
Jun 17
Full
Jun 25
Last Quarter
Jul 2
New

Hourly Weather History & Observations

Time (EDT) Temp. Heat Index Dew Point Humidity Pressure Visibility Wind Dir Wind Speed Gust Speed Precip Events Conditions
12:53 AM 81.0 °F 85.8 °F 73.0 °F 77% 30.01 in 10.0 mi SE 3.5 mph - N/A   Partly Cloudy
1:53 AM 81.0 °F 85.8 °F 73.0 °F 77% 29.99 in 10.0 mi ESE 4.6 mph - N/A   Partly Cloudy
2:53 AM 80.1 °F 84.2 °F 73.0 °F 79% 29.96 in 10.0 mi SSE 4.6 mph - N/A   Partly Cloudy
3:53 AM 80.1 °F 84.2 °F 73.0 °F 79% 29.96 in 10.0 mi SSE 4.6 mph - N/A   Partly Cloudy
4:53 AM 80.1 °F 84.2 °F 73.0 °F 79% 29.96 in 10.0 mi SE 4.6 mph - N/A   Partly Cloudy
5:53 AM 80.1 °F 84.2 °F 73.0 °F 79% 29.95 in 10.0 mi Calm Calm - N/A   Scattered Clouds
6:53 AM 81.0 °F 86.2 °F 73.9 °F 79% 29.96 in 10.0 mi SSE 4.6 mph - N/A   Scattered Clouds
7:53 AM 82.9 °F 88.8 °F 73.0 °F 72% 29.96 in 10.0 mi ESE 9.2 mph - N/A   Scattered Clouds
8:53 AM 84.0 °F 91.2 °F 73.9 °F 72% 29.98 in 10.0 mi SE 10.4 mph - N/A   Scattered Clouds
9:53 AM 86.0 °F 92.2 °F 72.0 °F 63% 29.98 in 10.0 mi SSE 5.8 mph - N/A   Mostly Cloudy
10:53 AM 87.1 °F 93.6 °F 72.0 °F 61% 29.98 in 10.0 mi SSE 9.2 mph - N/A   Mostly Cloudy
11:53 AM 86.0 °F 92.2 °F 72.0 °F 63% 29.97 in 10.0 mi ESE 12.7 mph - N/A   Scattered Clouds
12:53 PM 90.0 °F 97.9 °F 73.0 °F 57% 29.96 in 10.0 mi SE 15.0 mph 19.6 mph N/A   Scattered Clouds
1:53 PM 90.0 °F 97.9 °F 73.0 °F 57% 29.94 in 10.0 mi SE 13.8 mph 20.7 mph N/A   Scattered Clouds
2:53 PM 89.1 °F 96.0 °F 72.0 °F 57% 29.93 in 10.0 mi SE 13.8 mph - N/A   Scattered Clouds
3:53 PM 87.1 °F 93.6 °F 72.0 °F 61% 29.92 in 10.0 mi SSE 13.8 mph - N/A   Scattered Clouds
4:53 PM 88.0 °F 94.7 °F 72.0 °F 59% 29.91 in 10.0 mi SE 13.8 mph - N/A   Scattered Clouds
5:53 PM 87.1 °F 93.6 °F 72.0 °F 61% 29.92 in 10.0 mi ESE 16.1 mph - N/A   Mostly Cloudy
6:53 PM 86.0 °F 92.2 °F 72.0 °F 63% 29.92 in 10.0 mi SE 12.7 mph - N/A   Mostly Cloudy
7:53 PM 84.9 °F 91.4 °F 73.0 °F 67% 29.94 in 10.0 mi SSE 8.1 mph - N/A   Mostly Cloudy
8:53 PM 84.0 °F 90.2 °F 73.0 °F 69% 29.94 in 10.0 mi South 8.1 mph - N/A   Scattered Clouds
9:53 PM 80.1 °F 84.5 °F 73.9 °F 81% 29.94 in 10.0 mi SW 8.1 mph - 0.00 in Rain Light Rain
10:53 PM 81.0 °F 86.2 °F 73.9 °F 79% 29.94 in 10.0 mi SE 4.6 mph - 0.01 in   Scattered Clouds
11:53 PM 81.0 °F 86.7 °F 75.0 °F 82% 29.94 in 10.0 mi SSE 3.5 mph - N/A   Mostly Cloudy